When you browse on this site, cookies collect data to enhance your experience and personalize the content and advertising you see.
Visit our Privacy Policy to learn more. By continuing to use the site, you agree to this use of cookies and data.
  • In Österreich
  • Länderverzeichnis
  • Für 7 Tage
  • Wassertemperatur
  • Satellitenkarten
  • Wetterkarte
  • News
  • Widgets
  • user-avatar
    Anmelden

    Stündliche Wetter Dolgaya Dubrova

    Heute, 22 Juli, Montag

    Zeit Temperatur Niederschläge Wind Luftdruck Luftfeuchtigkeit
    00:00 +20°C° 0.2 mm 1 m/S 751 mmHg 85%
    01:00 +20°C° 0.2 mm 1 m/S 751 mmHg 88%
    02:00 +19°C° 0.2 mm 1 m/S 750 mmHg 92%
    03:00 +19°C° 0.8 mm 1 m/S 750 mmHg 93%
    04:00 +18°C° 0.8 mm 2 m/S 750 mmHg 95%
    05:00 +18°C° 0.8 mm 2 m/S 750 mmHg 96%
    06:00 +18°C° 1.6 mm 3 m/S 750 mmHg 96%
    07:00 +18°C° 1.6 mm 4 m/S 750 mmHg 96%
    08:00 +17°C° 1.6 mm 5 m/S 750 mmHg 96%
    09:00 +18°C° 0.5 mm 4 m/S 751 mmHg 95%
    10:00 +19°C° 0.5 mm 4 m/S 751 mmHg 94%
    11:00 +19°C° 0.5 mm 3 m/S 751 mmHg 93%
    12:00 +20°C° 0.4 mm 3 m/S 751 mmHg 88%
    13:00 +21°C° 0.4 mm 4 m/S 751 mmHg 83%
    14:00 +23°C° 0.4 mm 4 m/S 751 mmHg 78%
    15:00 +23°C° 0.3 mm 4 m/S 751 mmHg 76%
    16:00 +23°C° 0.3 mm 4 m/S 751 mmHg 74%
    17:00 +23°C° 0.3 mm 4 m/S 751 mmHg 72%
    18:00 +22°C° 0.1 mm 4 m/S 751 mmHg 77%
    19:00 +20°C° 0.1 mm 3 m/S 751 mmHg 82%
    20:00 +19°C° 0.1 mm 3 m/S 750 mmHg 87%
    21:00 +18°C° 0 mm 3 m/S 751 mmHg 90%
    22:00 +17°C° 0 mm 3 m/S 751 mmHg 93%
    23:00 +16°C° 0 mm 3 m/S 751 mmHg 95%

    Morgen, 23 Juli, Dienstag

    Zeit Temperatur Niederschläge Wind Luftdruck Luftfeuchtigkeit
    00:00 +16°C° 0 mm 3 m/S 751 mmHg 95%
    01:00 +14°C° 0 mm 3 m/S 750 mmHg 96%
    02:00 +14°C° 0 mm 3 m/S 750 mmHg 96%
    03:00 +13°C° 0 mm 3 m/S 750 mmHg 96%
    04:00 +13°C° 0 mm 3 m/S 750 mmHg 96%
    05:00 +13°C° 0 mm 3 m/S 751 mmHg 97%
    06:00 +13°C° 0 mm 3 m/S 750 mmHg 94%
    07:00 +14°C° 0 mm 3 m/S 750 mmHg 92%
    08:00 +14°C° 0 mm 3 m/S 750 mmHg 90%
    09:00 +15°C° 0 mm 4 m/S 750 mmHg 88%
    10:00 +17°C° 0 mm 4 m/S 750 mmHg 85%
    11:00 +17°C° 0 mm 5 m/S 750 mmHg 83%
    12:00 +18°C° 0.4 mm 4 m/S 750 mmHg 86%
    13:00 +17°C° 0.4 mm 4 m/S 750 mmHg 89%
    14:00 +17°C° 0.4 mm 4 m/S 750 mmHg 91%
    15:00 +18°C° 0.5 mm 4 m/S 750 mmHg 90%
    16:00 +19°C° 0.5 mm 4 m/S 750 mmHg 88%
    17:00 +20°C° 0.5 mm 4 m/S 750 mmHg 87%
    18:00 +19°C° 0.3 mm 3 m/S 750 mmHg 88%
    19:00 +18°C° 0.3 mm 3 m/S 749 mmHg 90%
    20:00 +18°C° 0.3 mm 3 m/S 749 mmHg 92%
    21:00 +17°C° 0 mm 3 m/S 749 mmHg 93%
    22:00 +17°C° 0 mm 3 m/S 750 mmHg 94%
    23:00 +16°C° 0 mm 3 m/S 750 mmHg 95%

    übermorgen, 24 Juli, Mittwoch

    Zeit Temperatur Niederschläge Wind Luftdruck Luftfeuchtigkeit
    00:00 +16°C° 0 mm 3 m/S 750 mmHg 95%
    01:00 +16°C° 0 mm 3 m/S 749 mmHg 96%
    02:00 +14°C° 0 mm 3 m/S 749 mmHg 96%
    03:00 +14°C° 0 mm 3 m/S 749 mmHg 97%
    04:00 +14°C° 0 mm 3 m/S 750 mmHg 97%
    05:00 +14°C° 0 mm 3 m/S 750 mmHg 97%
    06:00 +16°C° 0 mm 3 m/S 750 mmHg 93%
    07:00 +18°C° 0 mm 3 m/S 750 mmHg 90%
    08:00 +19°C° 0 mm 3 m/S 750 mmHg 86%
    09:00 +21°C° 0 mm 4 m/S 750 mmHg 78%
    10:00 +22°C° 0 mm 4 m/S 750 mmHg 70%
    11:00 +25°C° 0 mm 4 m/S 750 mmHg 62%
    12:00 +25°C° 0 mm 5 m/S 750 mmHg 59%
    13:00 +26°C° 0 mm 5 m/S 750 mmHg 56%
    14:00 +27°C° 0 mm 5 m/S 750 mmHg 53%
    15:00 +26°C° 0 mm 5 m/S 750 mmHg 56%
    16:00 +26°C° 0 mm 4 m/S 750 mmHg 58%
    17:00 +26°C° 0 mm 4 m/S 750 mmHg 60%
    18:00 +23°C° 0 mm 4 m/S 750 mmHg 67%
    19:00 +21°C° 0 mm 3 m/S 750 mmHg 73%
    20:00 +19°C° 0 mm 3 m/S 750 mmHg 80%
    21:00 +19°C° 0 mm 3 m/S 751 mmHg 82%
    22:00 +18°C° 0 mm 3 m/S 751 mmHg 84%
    23:00 +17°C° 0 mm 3 m/S 751 mmHg 85%

    25 Juli, Donnerstag

    Zeit Temperatur Niederschläge Wind Luftdruck Luftfeuchtigkeit
    00:00 +16°C° 0 mm 3 m/S 751 mmHg 85%
    01:00 +16°C° 0 mm 3 m/S 751 mmHg 84%
    02:00 +16°C° 0 mm 3 m/S 751 mmHg 83%
    03:00 +16°C° 0 mm 3 m/S 751 mmHg 84%
    04:00 +16°C° 0 mm 3 m/S 751 mmHg 84%
    05:00 +16°C° 0 mm 3 m/S 751 mmHg 85%
    06:00 +18°C° 0 mm 4 m/S 752 mmHg 79%
    07:00 +19°C° 0 mm 4 m/S 752 mmHg 74%
    08:00 +21°C° 0 mm 5 m/S 752 mmHg 68%
    09:00 +22°C° 0 mm 5 m/S 752 mmHg 65%
    10:00 +23°C° 0 mm 5 m/S 752 mmHg 61%
    11:00 +25°C° 0 mm 5 m/S 752 mmHg 57%
    12:00 +25°C° 0.2 mm 5 m/S 752 mmHg 64%
    13:00 +23°C° 0.2 mm 4 m/S 752 mmHg 70%
    14:00 +23°C° 0.2 mm 4 m/S 752 mmHg 76%
    15:00 +23°C° 0.2 mm 4 m/S 752 mmHg 78%
    16:00 +22°C° 0.2 mm 4 m/S 752 mmHg 81%
    17:00 +22°C° 0.2 mm 4 m/S 752 mmHg 83%
    18:00 +22°C° 0.1 mm 4 m/S 752 mmHg 85%
    19:00 +21°C° 0.1 mm 3 m/S 752 mmHg 88%
    20:00 +20°C° 0.1 mm 3 m/S 752 mmHg 90%
    21:00 +20°C° 0 mm 3 m/S 752 mmHg 91%
    22:00 +19°C° 0 mm 3 m/S 752 mmHg 92%
    23:00 +19°C° 0 mm 3 m/S 753 mmHg 94%

    26 Juli, Freitag

    Zeit Temperatur Niederschläge Wind Luftdruck Luftfeuchtigkeit
    00:00 +18°C° 0 mm 3 m/S 753 mmHg 95%
    01:00 +18°C° 0 mm 2 m/S 753 mmHg 96%
    02:00 +17°C° 0 mm 2 m/S 753 mmHg 97%
    03:00 +17°C° 0 mm 2 m/S 753 mmHg 96%
    04:00 +17°C° 0 mm 2 m/S 753 mmHg 96%
    05:00 +17°C° 0 mm 2 m/S 753 mmHg 96%
    06:00 +18°C° 0 mm 3 m/S 753 mmHg 89%
    07:00 +20°C° 0 mm 3 m/S 753 mmHg 82%
    08:00 +21°C° 0 mm 3 m/S 753 mmHg 76%
    09:00 +23°C° 0 mm 4 m/S 753 mmHg 68%
    10:00 +26°C° 0 mm 4 m/S 753 mmHg 61%
    11:00 +27°C° 0 mm 4 m/S 753 mmHg 54%
    12:00 +28°C° 0 mm 4 m/S 753 mmHg 54%
    13:00 +28°C° 0 mm 4 m/S 752 mmHg 54%
    14:00 +29°C° 0 mm 3 m/S 752 mmHg 54%
    15:00 +28°C° 0.2 mm 3 m/S 752 mmHg 58%
    16:00 +28°C° 0.2 mm 3 m/S 752 mmHg 61%
    17:00 +28°C° 0.2 mm 3 m/S 752 mmHg 64%
    18:00 +26°C° 0 mm 3 m/S 752 mmHg 69%
    19:00 +24°C° 0 mm 2 m/S 752 mmHg 74%
    20:00 +21°C° 0 mm 2 m/S 752 mmHg 79%
    21:00 +21°C° 0 mm 1 m/S 752 mmHg 82%
    22:00 +21°C° 0 mm 1 m/S 752 mmHg 85%
    23:00 +20°C° 0 mm 1 m/S 752 mmHg 88%

    27 Juli, Samstag

    Zeit Temperatur Niederschläge Wind Luftdruck Luftfeuchtigkeit
    00:00 +19°C° 0 mm 1 m/S 752 mmHg 90%
    01:00 +19°C° 0 mm 1 m/S 752 mmHg 92%
    02:00 +19°C° 0 mm 1 m/S 751 mmHg 93%
    03:00 +18°C° 0 mm 1 m/S 751 mmHg 94%
    04:00 +18°C° 0 mm 1 m/S 751 mmHg 94%
    05:00 +18°C° 0 mm 1 m/S 751 mmHg 95%
    06:00 +20°C° 0 mm 1 m/S 751 mmHg 88%
    07:00 +21°C° 0 mm 2 m/S 751 mmHg 82%
    08:00 +24°C° 0 mm 2 m/S 751 mmHg 75%
    09:00 +25°C° 0 mm 2 m/S 751 mmHg 69%
    10:00 +26°C° 0 mm 2 m/S 751 mmHg 63%
    11:00 +28°C° 0 mm 3 m/S 751 mmHg 56%
    12:00 +28°C° 0 mm 2 m/S 750 mmHg 56%
    13:00 +28°C° 0 mm 2 m/S 750 mmHg 55%
    14:00 +28°C° 0 mm 2 m/S 750 mmHg 55%
    15:00 +28°C° 0 mm 2 m/S 750 mmHg 57%
    16:00 +28°C° 0 mm 2 m/S 749 mmHg 58%
    17:00 +28°C° 0 mm 2 m/S 749 mmHg 60%
    18:00 +26°C° 0 mm 2 m/S 749 mmHg 67%
    19:00 +25°C° 0 mm 2 m/S 749 mmHg 73%
    20:00 +23°C° 0 mm 1 m/S 749 mmHg 80%
    21:00 +22°C° 0 mm 1 m/S 749 mmHg 80%
    22:00 +21°C° 0 mm 1 m/S 749 mmHg 80%
    23:00 +20°C° 0 mm 1 m/S 749 mmHg 80%
    Mehr zeigen